This demonstration page uses our WeatherBlox Daily Observations layout. Learn more.

Left ArrowRight Arrow

41.55636, -103.73856

Hourly Observations for August 31, 2021

Temp ( °F °C ) Dew Point ( °F °C ) Humidity (%) Winds ( mph kmh ) Pressure ( in mb ) Visibility ( mi km ) Precip ( " mm )
12:58 am 00:58 Mostly Clear 63 17.2 34 1 34 34 SW 7 11 29.73 1007 10 16 0.00 0.00
1:58 am 01:58 Clear 68 20.1 33 0.7 27 27 SSW 3 6 29.70 1006 10 16 0.00 0.00
2:58 am 02:58 Clear 58 14.7 34 1.3 40 40 NW 8 13 29.72 1006 10 16 0.00 0.00
3:58 am 03:58 Mostly Clear 58 14.4 37 2.7 46 46 WSW 7 11 29.72 1007 10 16 0.00 0.00
4:58 am 04:58 Mostly Cloudy 56 13.6 37 2.8 48 48 NNW 5 7 29.72 1007 10 16 0.00 0.00
5:58 am 05:58 Clear 54 12 37 2.9 54 54 Calm 29.76 1008 10 16 0.00 0.00
6:58 am 06:58 Mostly Sunny 53 11.8 38 3.1 56 56 WSW 5 7 29.80 1009 10 16 0.00 0.00
7:58 am 07:58 Sunny 57 13.8 39 3.7 51 51 Calm 29.80 1009 10 16 0.00 0.00
8:58 am 08:58 Sunny 62 16.9 47 8.4 58 58 ENE 3 6 29.80 1009 10 16 0.00 0.00
9:58 am 09:58 Sunny 67 19.7 49 9.3 51 51 ENE 3 6 29.81 1009 10 16 0.00 0.00
10:58 am 10:58 Sunny 73 23 50 10.2 44 44 ENE 6 9 29.79 1009 10 16 0.00 0.00
11:58 am 11:58 Sunny 78 25.7 49 9.3 36 36 ESE 10 17 29.77 1008 10 16 0.00 0.00
12:58 pm 12:58 Sunny 83 28.3 46 7.7 27 27 ESE 6 9 29.75 1008 10 16 0.00 0.00
1:58 pm 13:58 Sunny 85 29.5 46 8 26 26 E 9 15 29.72 1007 10 16 0.00 0.00
2:58 pm 14:58 Sunny 88 31.2 44 6.7 21 21 ESE 9 15 29.72 1006 10 16 0.00 0.00
3:58 pm 15:58 Sunny 90 32.1 38 3.6 16 16 SE 7 11 29.68 1005 10 16 0.00 0.00
4:58 pm 16:58 Sunny 90 32 41 4.8 18 18 SSE 13 20 29.67 1005 10 16 0.00 0.00
5:58 pm 17:58 Sunny 86 29.8 41 5.1 21 21 SE 12 19 29.70 1006 10 16 0.00 0.00
6:58 pm 18:58 Sunny 82 27.9 47 8.2 29 29 SE 10 17 29.72 1006 10 16 0.00 0.00
7:58 pm 19:58 Mostly Cloudy 78 25.5 51 10.7 39 39 SSE 15 24 29.72 1007 10 16 0.00 0.00
8:58 pm 20:58 Clear 74 23.6 57 13.8 54 54 SSE 23 37 29.72 1007 10 16 0.00 0.00
9:58 pm 21:58 Mostly Cloudy 73 22.5 58 14.3 60 60 S 23 37 29.73 1007 10 16 0.00 0.00
10:58 pm 22:58 Mostly Cloudy 71 21.8 58 14.6 64 64 S 7 11 29.75 1007 10 16 0.00 0.00
11:58 pm 23:58 Partly Cloudy 67 19.5 60 15.3 77 77 E 7 11 29.76 1008 10 16 0.00 0.00

Powered by AerisWeather